User: anonymous   Login
Location: Hertford
(51.8000°N, 0.0667°W)
Time: 03:29:27
(UTC+00:00)
Language:

Resurs 01 Rocket - Orbit

View from above orbital plane
View from above orbital plane
View from above satellite
View from above satellite

Ground track
Ground track

The orbit data is extracted from the following two-line orbital elements,

1 23343U 94074B   20335.42941631 +.00000097 +00000-0 +21075-4 0  9997
2 23343 097.9776 026.7633 0006442 347.5905 023.0198 14.76848880402911
Epoch (UTC): 30 November 2020 10:18:21
Eccentricity: 0.0006442
inclination: 97.9776°
perigee height: 635 km
apogee height: 644 km
right ascension of ascending node: 26.7633°
argument of perigee: 347.5905°
revolutions per day: 14.76848880
mean anomaly at epoch: 23.0198°
orbit number at epoch: 40291

The dashed part of the orbit path shows where the satellite is in the earth's shadow,  

DLR